[[{"header":{"parameterUnit":"m.s-1","parameterCategory":1,"la1":30.2991,"la2":30.254,"lo1":-89.0895,"lo2":-89.0444,"dy":0.0017,"dx":0.0017,"nx":28,"ny":28,"refTime":"2024-03-06T09:00:00:Z","depth":0,"parameterNumber":2,"parameterNumberName":"U-component_of_WINDS"},"data":[0,0,0,0,0,0,0,0,0,0,0,0,0,0,0,0,0,0,0,0,0,0,0,0,0,0,0,0,0,0,0,0,0,0,0,0,0,0,0,0,0,0,0,0,0,0,0,0,0,0,0,0,0,0,0,0,0,0,2.2641,2.2642,0,2.2756,2.2757,2.2759,2.2775,2.2774,2.2773,2.2772,2.2893,2.2897,2.2901,0,0,0,0,0,0,0,0,0,0,0,0,0,2.2438,2.2442,2.2641,2.2642,2.2644,2.2756,2.2757,2.2759,2.2775,2.2774,2.2773,2.2771,2.2891,2.2896,2.2901,0,0,0,0,0,0,0,0,0,0,0,0,0,2.2537,2.2443,2.2641,2.2665,2.2669,2.2756,2.2757,2.2759,2.2776,2.2774,2.2772,2.2771,2.289,2.2896,2.2902,2.2973,0,0,2.2921,2.2924,0,0,0,0,0,0,0,0,2.2531,2.2545,2.266,2.2664,2.2668,2.2749,2.273,2.2831,2.2776,2.2735,2.2772,2.277,2.2846,2.2856,2.2881,2.2979,2.2984,2.2922,2.2926,2.2928,2.293,0,0,0,0,0,0,0,2.2525,2.254,2.2687,2.2662,2.2667,2.2672,2.2684,2.2749,2.2798,2.2738,2.274,2.2753,2.2848,2.2875,2.2884,2.2986,2.2922,2.2927,2.2931,2.2934,2.3147,2.3149,0,0,0,0,0,0,2.2513,2.2534,2.2683,2.269,2.2594,2.2677,2.269,2.2725,2.2798,2.2807,2.2754,2.2754,2.2865,2.2877,2.2889,2.2977,2.2928,2.2934,2.2938,2.3145,2.3148,2.315,0,0,0,0,0,0,2.2508,2.2526,2.2678,2.2612,2.2632,2.2682,2.2721,2.2728,2.2755,2.281,2.2819,2.2773,2.2864,2.288,2.2952,2.2981,2.2937,2.2943,2.3143,2.3146,2.3149,2.3153,0,0,0,0,0,0,2.2503,2.2524,2.2551,2.2613,2.2636,2.2738,2.2722,2.2731,2.2766,2.2765,2.2829,2.2839,2.2864,2.2942,2.2958,2.2989,2.2948,2.3141,2.3145,2.3148,2.315,2.3155,2.316,0,0,0,0,0,2.2495,2.2548,2.2552,2.257,2.267,2.274,2.2753,2.2781,2.2768,2.2796,2.2831,2.2837,2.2975,2.2949,2.2967,2.3001,2.3139,2.3143,2.3148,2.3148,2.3154,2.316,0,0,0,0,0,0,2.2489,2.2557,2.2562,2.2636,2.2682,2.2743,2.2778,2.2787,2.2838,2.2836,2.2869,2.2884,2.2954,2.2985,2.2955,2.3073,2.3056,2.3064,2.305,2.3057,2.3062,2.3052,2.2953,0,0,0,0,0,2.2497,2.2547,2.2604,2.2664,2.2687,2.2729,2.276,2.2778,2.2827,2.2847,2.2887,2.2936,2.299,2.3025,2.3079,2.3155,2.3169,2.3187,2.3192,2.3195,2.3202,2.3245,2.3253,2.3164,2.3164,2.3164,0,0,2.2512,2.2555,2.2585,2.2664,2.2701,2.2754,2.2745,2.2801,2.284,2.2856,2.2925,2.2957,2.3013,2.3088,2.3123,2.3116,2.323,2.3201,2.3203,2.3208,2.325,2.3258,2.3266,2.3167,2.3166,2.3166,0,0,2.2567,2.2605,2.2659,2.2697,2.2754,2.2781,2.2794,2.2854,2.2875,2.2946,2.2958,2.3007,2.31,2.3139,2.3172,2.3242,2.3249,2.3259,2.3284,2.3325,2.3332,2.3338,2.3363,2.3372,2.3265,2.3265,2.3265,0,2.258,2.2658,2.2686,2.2741,2.2776,2.2791,2.2847,2.2883,2.2954,2.2978,2.2969,2.3086,2.3126,2.3209,2.3226,2.3252,2.3269,2.3251,2.3329,2.3335,2.3342,2.3366,2.3375,2.3266,2.3266,2.3266,2.3266,0,2.2671,2.2725,2.2762,2.283,2.2868,2.2924,2.2961,2.2997,2.3011,2.304,2.3112,2.316,2.3223,2.3244,2.3259,2.3331,2.3324,2.3322,2.3305,2.335,2.3374,2.3383,2.3267,2.3267,2.3266,2.3266,0,0,2.2725,2.2807,2.282,2.2851,2.2915,2.2958,2.3015,2.3075,2.3106,2.3155,2.3203,2.3282,2.328,2.3316,2.3336,2.3373,2.3425,2.3366,2.3367,2.3375,2.3507,2.3508,2.3518,2.3431,2.3433,2.3434,2.3502,0,2.2787,2.2886,2.2913,2.2998,2.3048,2.3065,2.3114,2.3159,2.3188,2.3236,2.3268,2.3323,2.3316,2.3338,2.3375,2.3411,2.3452,2.3407,2.3476,2.3479,2.3461,2.353,2.3532,2.3594,2.3511,2.3513,2.3514,0,2.2872,2.2922,2.3011,2.3069,2.3091,2.3135,2.3193,2.3238,2.329,2.3309,2.335,2.3366,2.3426,2.3407,2.3491,2.3459,2.3489,2.3511,2.3514,2.3522,2.3498,2.3539,2.3614,2.3623,2.3529,2.3528,2.3527,0,2.2902,2.2992,2.3057,2.3083,2.3152,2.3182,2.3212,2.3263,2.3297,2.3349,2.3372,2.343,2.3461,2.3506,2.3538,2.3521,2.362,2.3603,2.3637,2.3636,2.3656,2.3655,2.3737,2.3677,2.3677,2.3677,2.3676,0,2.2968,2.3022,2.3071,2.3111,2.3172,2.3203,2.3263,2.3295,2.3339,2.3386,2.3404,2.3448,2.3488,2.3538,2.3563,2.3629,2.3643,2.366,2.3666,2.3658,2.3656,2.3678,2.3674,2.3679,2.3679,2.3678,2.3678,0,2.3012,2.3046,2.3118,2.3177,2.3194,2.3236,2.3287,2.3327,2.3357,2.3416,2.3432,2.3478,2.3538,2.3574,2.365,2.3667,2.3739,2.3744,2.3721,2.3724,2.3755,2.3752,2.3854,2.3869,2.38,2.38,2.3801,0,2.3051,2.3093,2.3156,2.3189,2.3219,2.3271,2.3306,2.3339,2.3376,2.3438,2.347,2.3531,2.358,2.3675,2.3716,2.3774,2.378,2.3812,2.3789,2.3779,2.378,2.3777,2.3781,2.3816,2.3816,2.3817,2.3817,0,2.3118,2.3133,2.3183,2.3239,2.328,2.3326,2.3372,2.3398,2.3439,2.3479,2.3539,2.3578,2.3655,2.3714,2.3776,2.3809,2.382,2.3824,2.3835,2.3827,2.3812,2.382,2.3731,2.3821,2.3821,2.3821,2.382,2.382,2.316,2.3198,2.3248,2.3303,2.3341,2.3384,2.3424,2.3458,2.3509,2.3573,2.359,2.3653,2.3705,2.3789,2.3822,2.3873,2.3868,2.3884,2.3888,2.3891,2.3892,2.3804,2.3884,2.3884,2.3884,2.3884,2.3884,0,2.3227,2.326,2.3311,2.3374,2.3418,2.3424,2.3475,2.3511,2.3566,2.3613,2.3661,2.3731,2.3789,2.3835,2.3895,2.3927,2.3933,2.3941,2.3939,2.3946,2.3893,2.3877,2.3935,2.3935,2.3935,2.3935,2.3935,2.3935,2.3267,2.3331,2.3352,2.3436,2.3469,2.353,2.3559,2.3599,2.3636,2.3712,2.376,2.3789,2.3836,2.39,2.3954,2.3966,2.3987,2.3994,2.4007,2.3956,2.395,2.3945,2.393,2.3998,2.3998,2.4056,2.4057,2.4057]},{"header":{"parameterUnit":"m.s-1","parameterCategory":1,"la1":30.2991,"la2":30.254,"lo1":-89.0895,"lo2":-89.0444,"dy":0.0017,"dx":0.0017,"nx":28,"ny":28,"refTime":"2024-03-06T09:00:00:Z","depth":0,"parameterNumber":3,"parameterNumberName":"V-component_of_WINDS"},"data":[0,0,0,0,0,0,0,0,0,0,0,0,0,0,0,0,0,0,0,0,0,0,0,0,0,0,0,0,0,0,0,0,0,0,0,0,0,0,0,0,0,0,0,0,0,0,0,0,0,0,0,0,0,0,0,0,0,0,0.7794,0.7794,0,0.7806,0.7806,0.7806,0.7775,0.7774,0.7773,0.7772,0.7784,0.7785,0.7786,0,0,0,0,0,0,0,0,0,0,0,0,0,0.7742,0.7743,0.7794,0.7794,0.7794,0.7806,0.7806,0.7806,0.7775,0.7774,0.7773,0.7771,0.7784,0.7785,0.7787,0,0,0,0,0,0,0,0,0,0,0,0,0,0.7761,0.7744,0.7794,0.778,0.7779,0.7806,0.7806,0.7806,0.7775,0.7774,0.7772,0.7771,0.7783,0.7785,0.7787,0.7828,0,0,0.7792,0.7793,0,0,0,0,0,0,0,0,0.776,0.7762,0.7782,0.7781,0.778,0.7787,0.7792,0.7814,0.7776,0.7777,0.7772,0.777,0.7786,0.7788,0.7793,0.7828,0.7829,0.7793,0.7794,0.7795,0.7795,0,0,0,0,0,0,0,0.7758,0.7762,0.7799,0.7782,0.7781,0.7773,0.7774,0.7796,0.779,0.7776,0.7774,0.7776,0.7785,0.7792,0.7793,0.7829,0.7793,0.7794,0.7795,0.7796,0.7897,0.7899,0,0,0,0,0,0,0.7759,0.7761,0.7798,0.7799,0.7766,0.7775,0.7776,0.7786,0.7789,0.7788,0.7777,0.7774,0.7789,0.7791,0.7794,0.7841,0.7795,0.7796,0.7797,0.7896,0.7898,0.7899,0,0,0,0,0,0,0.7758,0.7763,0.7798,0.7779,0.7783,0.7777,0.7789,0.7787,0.7794,0.779,0.7788,0.7785,0.7788,0.7791,0.7819,0.7841,0.7797,0.7799,0.7894,0.7896,0.7899,0.7938,0,0,0,0,0,0,0.7757,0.7762,0.7778,0.778,0.7784,0.7824,0.7791,0.7789,0.7797,0.7793,0.7797,0.7796,0.7787,0.7817,0.7821,0.7843,0.78,0.7892,0.7895,0.7898,0.7934,0.7941,0.7947,0,0,0,0,0,0.7755,0.7789,0.7779,0.7784,0.7804,0.7825,0.7828,0.7817,0.7799,0.7815,0.7812,0.7796,0.7838,0.782,0.7825,0.7848,0.7891,0.7894,0.7898,0.7932,0.794,0.7947,0,0,0,0,0,0,0.779,0.7789,0.7778,0.7814,0.782,0.782,0.7839,0.7826,0.7837,0.7834,0.782,0.7821,0.7852,0.7852,0.7832,0.7887,0.7861,0.7866,0.7885,0.7893,0.7899,0.7898,0.7802,0,0,0,0,0,0.7802,0.782,0.7818,0.7849,0.7853,0.7846,0.7854,0.7846,0.7851,0.7853,0.7853,0.7859,0.7873,0.7883,0.7896,0.7934,0.7934,0.7952,0.7958,0.7963,0.7968,0.7987,0.7995,0.7911,0.7911,0.7911,0,0,0.7827,0.7829,0.7841,0.7856,0.786,0.7878,0.7848,0.7868,0.7881,0.7856,0.7883,0.7883,0.7888,0.7921,0.7936,0.7923,0.7991,0.7968,0.7972,0.7974,0.7991,0.7999,0.8006,0.7914,0.7913,0.7913,0,0,0.7882,0.7885,0.7911,0.7915,0.7921,0.7916,0.7922,0.7924,0.7923,0.7949,0.7931,0.7946,0.7971,0.7976,0.7981,0.8036,0.8022,0.8041,0.8073,0.8092,0.8099,0.8105,0.8124,0.8131,0.8045,0.8045,0.8045,0,0.7912,0.7939,0.7927,0.7948,0.7955,0.7933,0.7959,0.7964,0.7974,0.7979,0.7964,0.7995,0.7997,0.8031,0.8044,0.8049,0.8056,0.8041,0.8099,0.8105,0.811,0.8128,0.8136,0.8048,0.8047,0.8047,0.8047,0,0.7975,0.7994,0.8015,0.8024,0.8034,0.8058,0.8048,0.8059,0.805,0.8046,0.8073,0.8074,0.8087,0.8094,0.8085,0.8126,0.8118,0.8101,0.8075,0.812,0.8137,0.8144,0.8051,0.805,0.8049,0.8049,0,0,0.8054,0.8055,0.8063,0.8067,0.8071,0.8085,0.8107,0.812,0.8129,0.8136,0.8154,0.8176,0.8161,0.8167,0.8158,0.8174,0.8217,0.8156,0.8156,0.8167,0.8262,0.8275,0.8283,0.8207,0.8209,0.821,0.8262,0,0.8107,0.8146,0.8135,0.8173,0.819,0.8169,0.8188,0.8192,0.8189,0.8203,0.8199,0.8214,0.8193,0.8196,0.8212,0.8209,0.8236,0.8205,0.8224,0.8225,0.8223,0.8292,0.8305,0.8354,0.8268,0.8269,0.827,0,0.8175,0.8185,0.8225,0.8225,0.8232,0.8249,0.8259,0.8273,0.8277,0.8273,0.828,0.8267,0.8288,0.8262,0.8291,0.827,0.8277,0.8276,0.8278,0.8279,0.825,0.8295,0.837,0.8377,0.828,0.828,0.8279,0,0.8228,0.825,0.8277,0.8281,0.8282,0.8295,0.8296,0.8299,0.8307,0.8315,0.832,0.8331,0.8337,0.8346,0.8336,0.8318,0.8367,0.834,0.8364,0.8364,0.8376,0.8375,0.8452,0.838,0.838,0.838,0.838,0,0.8289,0.8314,0.8301,0.8317,0.8345,0.8331,0.8359,0.8357,0.836,0.8375,0.8357,0.8372,0.8359,0.8372,0.8364,0.8389,0.8392,0.839,0.8388,0.8391,0.8392,0.8396,0.8392,0.8382,0.8381,0.8381,0.8381,0,0.8352,0.8344,0.8372,0.8371,0.8371,0.8391,0.839,0.8405,0.84,0.8419,0.8423,0.8416,0.8431,0.8422,0.8437,0.8432,0.8464,0.8457,0.8463,0.8461,0.8486,0.8484,0.8569,0.8579,0.85,0.8501,0.8502,0,0.8392,0.8411,0.8411,0.842,0.8422,0.8437,0.8445,0.8432,0.8441,0.8447,0.8461,0.8474,0.8484,0.8509,0.8504,0.8516,0.8509,0.8538,0.851,0.8514,0.8509,0.8508,0.851,0.8543,0.8544,0.8545,0.8546,0,0.8463,0.8457,0.8469,0.848,0.849,0.8497,0.8503,0.8512,0.8499,0.851,0.8525,0.8532,0.8547,0.8561,0.857,0.8571,0.8556,0.8554,0.856,0.8565,0.8567,0.8566,0.8478,0.8552,0.8552,0.8551,0.8551,0.8551,0.8515,0.8531,0.8533,0.8547,0.855,0.8556,0.857,0.8566,0.8578,0.859,0.8581,0.8599,0.8602,0.8613,0.8615,0.8628,0.8617,0.8626,0.8628,0.863,0.8634,0.8565,0.863,0.863,0.863,0.8629,0.8629,0,0.8585,0.8585,0.8598,0.8607,0.8617,0.8602,0.8608,0.8618,0.8633,0.8637,0.8647,0.8664,0.8676,0.8673,0.8684,0.8695,0.8689,0.8698,0.8697,0.8698,0.8644,0.8637,0.8703,0.8703,0.8703,0.8703,0.8703,0.8703,0.8622,0.8647,0.8642,0.8669,0.8669,0.8686,0.869,0.8695,0.8698,0.8718,0.8728,0.8725,0.8726,0.8737,0.8747,0.8746,0.8751,0.8763,0.8759,0.8709,0.8702,0.8695,0.8688,0.8764,0.8764,0.8812,0.8813,0.8813]}]]